Simultaneous Nadir Overpasses (SNOs) Predictions

Prediction of SNOs between GOES-16 and LANDSAT-8 Satellite Orbit:

Table of predicted SNOs for the next 14.0 days since TLE Epoch: 7/26/2019
Index Date Time (GOES-16) GOES-16 Lat,Lon LANDSAT-8 Lat,Lon Distance(km) Time Diff (sec)
1 07/28/2019 15:00:27 0.01, -75.22 -0.59, -72.43 316.72 80
2 07/29/2019 03:24:30 -0.02, -75.22 -0.55, -77.62 273.57 80
3 07/31/2019 03:09:41 -0.02, -75.24 0.13, -74.67 64.73 80
4 08/02/2019 02:57:31 -0.01, -75.27 0.73, -71.72 403.26 80
5 08/02/2019 15:21:27 0.02, -75.28 0.36, -76.88 181.60 80
6 08/04/2019 15:06:38 0.02, -75.31 -0.30, -73.93 157.76 80
7 08/05/2019 03:30:42 -0.02, -75.32 -0.85, -79.11 432.06 80
8 08/06/2019 14:54:29 0.01, -75.36 -0.95, -70.98 497.78 80
9 08/07/2019 03:18:33 -0.02, -75.36 -0.20, -76.17 91.87 80
10 08/09/2019 03:03:44 -0.02, -75.41 0.43, -73.22 248.81 80
11 08/09/2019 15:27:40 0.03, -75.43 0.67, -78.37 335.54 80




NCC Satellite Simultaneous Nadir Overpasses (SNOs) Prediction Service
